Total_Precipitation_Accumulation
1.56 1.45 1.42 1.61 1.70 2.01 2.26 2.41 2.29 2.08 1.81 1.56 1.53 1.51 1.59 1.60 1.64 1.69 2.08 2.59 3.15 4.00 4.47 4.45 4.34 4.24 4.20 4.12 3.89 3.74 3.50 3.17 3.17 3.41 3.96 4.24 3.96 3.46 3.10 2.83 2.63 2.38 2.43
1.38 1.40 1.32 1.41 1.59 1.94 2.37 2.51 2.23 2.10 1.89 1.77 1.75 1.67 1.65 1.63 1.64 1.57 1.76 2.05 2.17 2.62 3.35 4.02 4.40 4.44 4.49 4.43 3.95 3.73 3.47 3.12 3.03 3.13 3.17 3.30 3.34 3.07 2.80 2.76 2.57 2.38 2.52
1.17 1.28 1.35 1.37 1.49 1.86 2.33 2.61 2.47 2.26 1.98 1.92 1.87 1.80 1.71 1.73 1.67 1.58 1.69 1.90 1.84 1.95 2.46 3.22 4.01 4.38 4.35 4.29 3.90 3.67 3.34 2.93 2.75 2.80 2.89 2.84 2.99 3.00 2.86 2.77 2.59 2.43 2.43
1.18 1.28 1.40 1.38 1.44 1.76 2.19 2.55 2.68 2.67 2.44 2.28 2.12 1.96 1.84 1.99 1.85 1.71 1.76 1.91 2.04 1.89 1.98 2.44 3.10 3.82 4.17 4.27 3.80 3.43 3.13 2.78 2.59 2.51 2.63 2.52 2.73 2.96 2.97 2.82 2.73 2.71 2.63
1.22 1.34 1.57 1.61 1.62 1.86 2.07 2.20 2.41 2.60 2.66 2.47 2.13 2.06 1.94 2.05 2.16 2.06 2.11 2.17 2.20 2.12 2.00 2.01 2.29 2.68 3.45 3.94 3.80 3.50 3.27 2.84 2.58 2.42 2.54 2.41 2.43 2.74 2.92 2.75 2.76 2.84 2.78
1.45 1.42 1.60 1.65 1.71 2.01 2.12 2.26 2.55 2.63 2.70 2.68 2.29 2.11 2.03 2.02 2.08 2.29 2.40 2.40 2.38 2.18 2.12 1.99 2.13 2.21 2.83 3.46 3.57 3.44 3.20 3.09 2.98 2.76 2.78 2.67 2.48 2.60 2.79 2.71 2.75 2.79 2.83
1.54 1.59 1.66 1.71 1.75 1.91 1.99 2.15 2.60 2.72 2.70 2.58 2.67 2.58 2.42 2.17 2.09 2.18 2.30 2.51 2.60 2.41 2.30 2.29 2.21 2.19 2.32 2.69 2.90 3.04 3.01 3.27 3.42 3.25 3.03 2.83 2.61 2.70 2.83 2.74 2.78 2.73 2.68
1.49 1.44 1.67 1.84 1.81 1.99 2.05 2.22 2.58 2.90 2.73 2.58 2.94 3.36 3.08 2.75 2.36 2.11 2.15 2.20 2.44 2.47 2.32 2.19 2.08 2.09 2.16 2.26 2.22 2.41 2.69 3.18 3.65 3.49 3.11 2.96 2.77 2.64 2.75 2.72 2.70 2.61 2.58
1.76 1.70 1.80 1.98 1.96 2.04 2.16 2.21 2.34 2.89 3.12 2.90 2.82 3.39 3.27 3.03 2.96 2.40 1.96 1.84 2.11 2.32 2.34 2.19 2.09 2.14 2.17 2.28 2.19 2.11 2.26 2.64 3.31 3.40 3.22 3.22 3.04 2.75 2.56 2.48 2.46 2.56 2.64
2.02 1.88 1.92 2.02 2.08 2.17 2.15 1.98 2.15 2.70 3.26 3.35 3.10 2.84 2.68 2.60 2.78 2.72 2.13 1.76 1.80 1.99 2.22 2.12 2.12 2.21 2.27 2.37 2.39 2.14 1.96 2.13 2.70 3.33 3.57 3.46 3.30 3.03 2.72 2.52 2.44 2.48 2.49
2.07 1.91 1.86 2.02 2.13 2.20 2.18 2.22 2.36 2.67 3.03 3.38 3.36 3.10 2.81 2.55 2.10 2.27 2.33 2.10 1.79 1.68 1.78 1.93 2.10 2.18 2.23 2.21 2.34 2.21 1.84 1.71 2.07 2.73 3.33 3.50 3.37 3.23 3.08 2.96 2.95 2.90 2.74
1.94 1.89 1.89 1.92 1.93 2.02 2.11 2.27 2.50 2.64 2.84 3.08 3.18 2.88 2.74 2.65 2.40 2.19 2.03 2.12 2.08 1.76 1.61 1.61 1.74 1.94 2.03 2.13 2.01 2.06 1.81 1.60 1.66 1.87 2.27 2.79 3.03 3.19 3.28 3.30 3.21 3.06 3.01
1.74 1.73 1.78 1.79 1.72 1.74 1.88 2.05 2.27 2.30 2.43 2.65 2.77 2.66 2.50 2.32 2.26 2.30 2.24 2.12 1.97 1.70 1.56 1.40 1.49 1.64 1.66 1.87 2.05 2.02 1.73 1.65 1.52 1.49 1.57 1.80 2.17 2.56 2.95 3.33 3.41 3.32 3.27
1.53 1.48 1.50 1.55 1.56 1.57 1.64 1.82 1.97 1.94 2.01 2.20 2.26 2.34 2.26 2.16 2.15 2.14 2.17 2.31 2.18 1.94 1.58 1.25 1.30 1.47 1.45 1.56 1.90 1.97 1.59 1.51 1.37 1.31 1.32 1.41 1.56 1.86 2.28 2.65 2.94 3.12 3.18
1.32 1.25 1.29 1.41 1.51 1.50 1.49 1.65 1.77 1.72 1.78 1.91 2.05 2.22 2.15 2.08 2.05 2.06 2.14 2.24 2.30 2.18 1.88 1.39 1.23 1.22 1.27 1.36 1.73 1.62 1.51 1.51 1.38 1.28 1.19 1.17 1.25 1.39 1.59 1.87 2.10 2.27 2.37
1.27 1.24 1.25 1.26 1.29 1.33 1.38 1.55 1.72 1.77 1.75 1.80 1.87 1.98 2.11 2.10 2.09 2.07 2.14 2.18 2.17 2.17 2.04 1.59 1.30 1.19 1.29 1.24 1.48 1.27 1.39 1.61 1.42 1.25 1.16 1.11 1.12 1.21 1.33 1.51 1.57 1.54 1.53
1.09 1.05 1.02 1.06 1.18 1.18 1.19 1.38 1.47 1.48 1.61 1.70 1.65 1.68 1.85 1.95 2.07 2.08 2.10 2.10 2.14 2.11 1.99 1.74 1.38 1.23 1.38 1.43 1.47 1.28 1.25 1.31 1.26 1.26 1.17 1.07 1.03 1.08 1.10 1.23 1.37 1.27 1.19
0.95 0.99 1.01 0.95 1.09 1.23 1.24 1.28 1.28 1.27 1.41 1.51 1.52 1.58 1.62 1.63 1.73 1.87 1.99 1.96 2.02 2.06 2.04 1.93 1.62 1.41 1.43 1.54 1.72 1.67 1.52 1.40 1.37 1.51 1.47 1.30 1.18 1.16 1.17 1.20 1.32 1.27 1.08
0.81 0.92 1.08 1.06 1.03 1.10 1.18 1.18 1.17 1.18 1.22 1.26 1.29 1.36 1.39 1.49 1.63 1.64 1.71 1.79 1.86 1.90 2.02 1.98 1.86 1.75 1.63 1.59 1.68 1.65 1.68 1.78 1.70 1.67 1.74 1.58 1.44 1.34 1.28 1.28 1.32 1.32 1.19
0.83 0.84 0.84 0.95 1.01 1.05 1.10 1.10 1.09 1.07 1.07 1.07 1.17 1.24 1.29 1.35 1.46 1.52 1.54 1.67 1.80 1.88 1.91 1.88 1.82 1.75 1.72 1.71 1.71 1.69 1.76 1.89 1.97 1.81 1.77 1.68 1.68 1.61 1.47 1.40 1.35 1.36 1.34
0.64 0.70 0.69 0.70 0.78 0.90 0.93 0.92 0.94 1.00 1.04 1.05 1.14 1.16 1.19 1.19 1.24 1.31 1.31 1.48 1.63 1.80 1.85 1.87 1.78 1.69 1.63 1.66 1.65 1.64 1.73 1.96 2.01 2.02 1.99 1.83 1.70 1.55 1.50 1.49 1.46 1.48 1.47
0.52 0.55 0.55 0.62 0.66 0.71 0.87 0.89 0.85 0.89 0.97 1.00 1.05 1.08 1.17 1.20 1.15 1.11 1.09 1.16 1.29 1.40 1.58 1.70 1.74 1.66 1.57 1.55 1.68 1.79 1.79 1.94 2.07 1.97 1.89 1.96 1.86 1.74 1.58 1.48 1.57 1.59 1.52
0.58 0.55 0.55 0.59 0.56 0.56 0.70 0.71 0.83 0.97 0.96 0.92 0.90 1.03 1.12 1.14 1.18 1.17 1.06 1.05 1.04 1.08 1.19 1.37 1.49 1.49 1.48 1.51 1.63 1.76 1.86 1.94 1.86 1.90 1.88 1.99 1.93 1.79 1.57 1.53 1.64 1.51 1.48
0.60 0.65 0.65 0.65 0.57 0.49 0.59 0.65 0.79 0.86 0.86 0.83 0.86 0.95 1.08 1.16 1.21 1.23 1.16 1.20 1.13 1.00 1.00 1.06 1.23 1.33 1.37 1.55 1.73 1.90 2.04 2.06 1.94 1.89 1.85 1.92 1.81 1.64 1.48 1.44 1.59 1.48 1.38
0.57 0.64 0.73 0.72 0.61 0.53 0.59 0.65 0.78 0.86 0.92 0.89 0.87 0.92 1.07 1.13 1.28 1.34 1.23 1.28 1.24 1.03 0.96 1.06 1.10 1.19 1.32 1.49 1.71 1.94 2.04 2.08 2.07 1.95 1.73 1.63 1.55 1.59 1.55 1.45 1.44 1.44 1.33
0.61 0.63 0.65 0.63 0.56 0.54 0.57 0.60 0.70 0.74 0.86 0.93 0.95 0.94 1.16 1.24 1.34 1.29 1.19 1.34 1.41 1.23 0.98 0.97 1.05 1.17 1.28 1.44 1.71 1.88 2.13 2.17 2.01 1.94 1.71 1.56 1.56 1.67 1.81 1.63 1.41 1.31 1.24